Satellite: NOAA-17
Catalog number: 27453
Epoch time:      05117.89741945
Element set:    0354
Inclination:      098.6621 deg
RA of node:       192.1676 deg
Eccentricity:    0.0011782
Arg of perigee:   196.1202 deg
Mean anomaly:     163.9622 deg
Mean motion:   14.23655589 rev/day
Decay rate:        4.7e-07 rev/day^2
Epoch rev:           14768
Checksum:              331

/EX
SB KEPS @ AMSAT  $ORB05118.M
Orbital Elements  05118.MISC

HR AMSAT ORBITAL ELEMENTS FOR MANNED AND MISCELLANEOUS SATELLITES
FROM WA5QGD FORT WORTH,TX April 28, 2005
SEND SUBSCRIBE/UNSUBSCRIBE TO majordomo@amsat.org ONLY
BID: ORB05118.M
TO ALL RADIO AMATEURS BT

Satellite: HUBBLE
Catalog number: 20580
Epoch time:      05117.68108649
Element set:     325
Inclination:      028.4674 deg
RA of node:       237.8599 deg
Eccentricity:    0.0003804
Arg of perigee:   099.4576 deg
Mean anomaly:     260.6442 deg
Mean motion:   14.99685003 rev/day
Decay rate:       6.45e-06 rev/day^2
Epoch rev:           62265
Checksum:              324

Satellite: UARS
Catalog number: 21701
Epoch time:      05118.80504603
Element set:     430
Inclination:      056.9822 deg
RA of node:       030.2291 deg
Eccentricity:    0.0004160
Arg of perigee:   105.7125 deg
Mean anomaly:     254.4327 deg
Mean motion:   15.03808212 rev/day
Decay rate:       -1.6e-07 rev/day^2
Epoch rev:           74606
Checksum:              238

Satellite: PO-34
Catalog number: 25520
Epoch time:      05118.81235115
Element set:     166
Inclination:      028.4594 deg
RA of node:       282.3755 deg
Eccentricity:    0.0005619
Arg of perigee:   051.7039 deg
Mean anomaly:     308.4042 deg
Mean motion:   15.16229550 rev/day
Decay rate:       7.97e-06 rev/day^2
Epoch rev:           35908
Checksum:              300

Satellite: ISS
Catalog number: 25544
Epoch time:      05118.91304830
Element set:     351
Inclination:      051.6444 deg
RA of node:       153.1943 deg
Eccentricity:    0.0007880
Arg of perigee:   061.4358 deg
Mean anomaly:     359.5788 deg
Mean motion:   15.71592636 rev/day
Decay rate:      7.037e-05 rev/day^2
Epoch rev:           36793
Checksum:              315

Satellite: WO-39
Catalog number: 26061
Epoch time:      03303.41062303
Element set:     973
Inclination:      100.1904 deg
RA of node:       047.3011 deg
Eccentricity:    0.0034615
Arg of perigee:   281.6926 deg
Mean anomaly:     078.0378 deg
Mean motion:   14.38082544 rev/day
Decay rate:      2.252e-05 rev/day^2
Epoch rev:           19701
Checksum:              268

Satellite: OO-38
Catalog number: 26063
Epoch time:      05117.60212414
Element set:    0339
Inclination:      100.2212 deg
RA of node:       328.3747 deg
Eccentricity:    0.0036804
Arg of perigee:   197.1517 deg
Mean anomaly:     162.8430 deg
Mean motion:   14.35713492 rev/day
Decay rate:       -5.0e-08 rev/day^2
Epoch rev:           27504
Checksum:              270

Satellite: NO-45
Catalog number: 26932
Epoch time:      05117.91213463
Element set:    0019
Inclination:      067.0601 deg
RA of node:       356.9335 deg
Eccentricity:    0.0008466
Arg of perigee:   255.1847 deg
Mean anomaly:     104.8294 deg
Mean motion:   14.29479331 rev/day
Decay rate:      -3.14e-06 rev/day^2
Epoch rev:           18661
Checksum:              306

/EX




----
Via the keps mailing list at AMSAT.ORG courtesy of AMSAT-NA.
To unsubscribe, send "unsubscribe keps" to Majordomo@amsat.org

--- ViaMAIL!/WC v1.60d
 * Origin: Chowdanet (401-331-0615) telnet://chowdanet.com  (1:323/120)